Terminal Aerodrome Forecast
Issued by NWS Duluth, MN

Home | Current Version | Previous Version | Text Only | Print | Product List | Glossary On
Versions: 1 2 3 4 5 6 7 8 9 10 11 12 13 14 15 16 17 18 19 20 21 22 23 24 25 26 27 28 29
000
FTUS43 KDLH 271000 AAB
TAFINL
TAF AMD
KINL 271049Z 2711/2806 35003KT P6SM OVC007
      TEMPO 2711/2715 OVC004
     FM271600 17005KT P6SM OVC012
     FM272100 16006KT P6SM SCT015 BKN080=

USA.gov is the U.S. government's official web portal to all federal, state and local government web resources and services.